Weather in Sury

Russia / Oryol Oblast     52°58′59″N   37°20′06″E
temp.,
°C
wind,
m/s
gust,
m/s
humid.,
%
clouds,
%
prec.,
mm/h
press.,
hPa
HPBL,
m
18 may, wed
wed1800:00+5nw5991100 0.1 1008424
03:00+5wnw5997100 0.9 1008377
06:00+6nw5997100 2.6 1009497
09:00+6nnw51096100 2.9 1011482
12:00+8n599396 0.2 1012653
15:00+13n6870100 0.5 10131250
18:00+13n68675 0.3 1013989
21:00+7nnw4118462 0.3 1016244
19 may, thu
thu1900:00+6nnw410905 0.0 1017242
03:00+4nnw37925 0.0 1018116
06:00+5nw36895 0.0 1018162
09:00+10wnw57655 0.0 1018648
12:00+14wnw685633 0.0 10171672
15:00+15nw585999 0.1 10151558
18:00+13nnw696457 0.2 10151080
21:00+9n348279 0.3 101672
20 may, fri
fri2000:00+9nnw2581100 0.0 1017170
03:00+8nw358567 0.1 1017170
06:00+7nnw35915 0.0 1018164
09:00+11nnw45665 0.0 1019856
12:00+13nnw45507 0.0 10191866
15:00+13nnw3449100 0.0 10171834
18:00+12ene2262100 0.1 1016546
21:00+9ese3569100 0.1 101698
21 may, sat
sat2100:00+8se4872100 0.0 1014269
03:00+7se3685100 0.3 1012281
06:00+7e4690100 0.9 1010302
09:00+7e598995 1.7 1010678
12:00+12e675452 0.0 10091701
15:00+13ene554717 0.0 10091995
18:00+12ene565913 0.0 1009882
21:00+7ene35725 0.0 101176
22 may, sun
sun2200:00+6e347392 0.0 101056
03:00+4e337590 0.0 101029
06:00+5ene3676100 0.0 1009163
09:00+9ene5657100 0.0 1008712
12:00+11ene5548100 0.0 10081958
15:00+12ene4548100 0.0 10081862
18:00+11ne3560100 0.1 10081108
21:00+8ne487098 0.1 1009196